Ignacio, CO

9:01 PM MST on December 02, 2016 (GMT -0700)
Durango-La Plata County

Weather History for KDRO - November, 2014

Change the Weather History Date:

Tuesday, November 11, 2014

  Actual Average Record
Temperature  
Mean Temperature 40 °F 37 °F  
Max Temperature 57 °F 51 °F 73 °F (1973)
Min Temperature 22 °F 23 °F 12 °F (1998)
Degree Days  
Heating Degree Days 25 28  
Month to date heating degree days 245 287  
Since 1 July heating degree days 818 1075  
Cooling Degree Days 0 0  
Month to date cooling degree days 0 0  
Year to date cooling degree days 305 243  
Moisture  
Dew Point 18 °F    
Average Humidity 48    
Maximum Humidity 69    
Minimum Humidity 26    
Precipitation  
Precipitation 0.00 in 0.05 in 1.01 in (1978)
Month to date precipitation 0.64 0.63  
Year to date precipitation 10.99 13.85  
Sea Level Pressure  
Sea Level Pressure 29.90 in    
Wind  
Wind Speed 7 mph (WNW)    
Max Wind Speed 31 mph    
Max Gust Speed 37 mph    
T = Trace of Precipitation, MM = Missing Value Source: NWS Daily Summary

Daily Weather History Graph

Daily Weather History Graph

Search for Another Location

Airport or City:

Trip Planner

Search our weather history database for the weather conditions in past years. The results will help you decide how hot, cold, wet, or windy it might be!

Date:

Astronomy

Nov. 11, 2014 Rise Set
Actual Time 6:45 AM MST 5:03 PM MST
Civil Twilight 6:18 AM MST 5:31 PM MST
Nautical Twilight 5:47 AM MST 6:02 PM MST
Astronomical Twilight 5:16 AM MST 6:33 PM MST
Moon 9:30 PM MST (11/11) 10:54 AM MST (11/11)
Length of Visible Light 11h 13m
Length of Day
10h 18m
Waning Gibbous, 76% of the Moon is Illuminated
Nov 11
Waning Gibbous
Nov 14
Last Quarter
Nov 22
New
Nov 29
First Quarter
Dec 6
Full

Hourly Weather History & Observations

Time (MST) Temp. Windchill Dew Point Humidity Pressure Visibility Wind Dir Wind Speed Gust Speed Precip Events Conditions
12:53 AM 37.0 °F 29.8 °F 10.9 °F 34% 29.79 in - West 10.4 mph - N/A   Clear
1:53 AM 36.0 °F 29.0 °F 9.0 °F 33% 29.81 in - SW 9.2 mph - N/A   Clear
2:53 AM 35.1 °F 30.1 °F 8.1 °F 33% 29.83 in - West 5.8 mph - N/A   Clear
3:53 AM 28.0 °F 24.2 °F 12.9 °F 53% 29.88 in - North 3.5 mph - N/A   Clear
4:53 AM 27.0 °F 20.5 °F 12.0 °F 53% 29.91 in - NNE 5.8 mph - N/A   Clear
5:53 AM 25.0 °F - 12.9 °F 60% 29.95 in - Calm Calm - N/A   Clear
6:53 AM 24.1 °F - 12.9 °F 62% 29.97 in - Calm Calm - N/A   Clear
7:53 AM 30.0 °F 26.5 °F 16.0 °F 56% 29.99 in - ENE 3.5 mph - N/A   Clear
8:53 AM 36.0 °F - 14.0 °F 41% 29.96 in - North - - N/A   Unknown
9:53 AM 41.0 °F 38.0 °F 15.1 °F 35% 29.95 in - ESE 4.6 mph - N/A   Clear
10:53 AM 48.0 °F - 19.0 °F 32% 29.89 in - Variable 6.9 mph - N/A   Clear
11:53 AM 51.1 °F - 19.9 °F 29% 29.87 in - WSW 13.8 mph 19.6 mph N/A   Clear
12:53 PM 53.1 °F - 19.9 °F 27% 29.86 in - WSW 16.1 mph 23.0 mph N/A   Clear
1:53 PM 55.0 °F - 21.0 °F 27% 29.84 in - SSW 10.4 mph - N/A   Clear
2:53 PM 55.9 °F - 21.0 °F 26% 29.83 in - West 21.9 mph 32.2 mph N/A   Clear
3:53 PM 55.9 °F - 21.9 °F 27% 29.86 in - West 17.3 mph 21.9 mph N/A   Clear
4:53 PM 52.0 °F - 23.0 °F 32% 29.89 in - WSW 3.5 mph - N/A   Clear
5:53 PM 46.9 °F - 23.0 °F 39% 29.91 in - South 4.6 mph - N/A   Clear
6:53 PM 43.0 °F 41.3 °F 24.1 °F 47% 29.95 in - North 3.5 mph - N/A   Clear
7:53 PM 34.0 °F 26.6 °F 24.1 °F 67% 29.97 in - NNE 9.2 mph - N/A   Clear
8:53 PM 35.1 °F 31.0 °F 23.0 °F 61% 29.94 in - NNE 4.6 mph - N/A   Clear
9:53 PM 33.1 °F - 23.0 °F 66% 29.94 in - Calm Calm - N/A   Clear
10:53 PM 33.1 °F 27.7 °F 24.1 °F 70% 29.90 in - North 5.8 mph - N/A   Mostly Cloudy
11:53 PM 33.1 °F 30.0 °F 24.1 °F 70% 29.90 in - North 3.5 mph - N/A   Partly Cloudy